Regional Weather Roundup
Issued by NWS Sioux Falls, SD

Home | Current Version | Previous Version | Graphics & Text | Print | Product List | Glossary Off
Versions: 1 2 3 4 5 6 7 8 9 10 11 12 13 14 15 16 17 18 19 20 21 22 23 24 25 26 27 28 29 30 31 32 33 34 35 36 37 38 39 40 41 42 43 44 45 46 47 48 49 50

041
ASUS43 KFSD 270602
RWRFSD

WEATHER ROUNDUP FOR SE SOUTH DAKOTA/SW MINNESOTA/NW IOWA
NATIONAL WEATHER SERVICE SIOUX FALLS SD
100 AM CDT TUE SEP 27 2016

NOTE: "FAIR" INDICATES FEW OR NO CLOUDS BELOW 12,000 FEET WITH NO
SIGNIFICANT WEATHER AND OR OBSTRUCTIONS TO VISIBILITY.


SDZ038>040-050-052>070-270700-
SOUTHEAST SOUTH DAKOTA

CITY           SKY/WX    TMP DP  RH WIND       PRES   REMARKS
CHAMBERLAIN    CLEAR     49  42  78 W5        30.10S
6HR MIN TEMP:  46; 6HR MAX TEMP:  70;

HURON          CLEAR     45  35  68 W6        30.05S
6HR MIN TEMP:  44; 6HR MAX TEMP:  65;

MADISON        FAIR      48  36  61 NW9       30.03S
MITCHELL       CLEAR     50  37  61 W7        30.07S
6HR MIN TEMP:  49; 6HR MAX TEMP:  69;

SIOUX FALLS    CLEAR     49  36  61 W6        30.03S
6HR MIN TEMP:  48; 6HR MAX TEMP:  65;

WINNER         FAIR      50  40  68 SW6       30.12S
YANKTON        CLEAR     48  41  76 W7        30.05S
$$

MNZ071-072-080-081-089-090-097-098-270700-
SOUTHWEST MINNESOTA

CITY           SKY/WX    TMP DP  RH WIND       PRES   REMARKS
FAIRMONT       CLEAR     52  37  56 W10       29.96F
JACKSON        CLEAR     54  32  43 NW10      29.99S
LUVERNE        CLEAR     45  36  70 CALM      30.02F
MARSHALL       CLEAR     49  37  63 W10       29.97F
6HR MIN TEMP:  49; 6HR MAX TEMP:  61;

MONTEVIDEO     CLEAR     50  37  62 NW7       29.96F
PIPESTONE      CLEAR     48  34  57 NW6       30.01F
REDWOOD FALLS  CLEAR     49  37  63 W10       29.94F
TRACY          CLEAR     52  38  59 W5        29.98F
WINDOM         CLEAR     45  37  76 W8        29.98F
WORTHINGTON    CLEAR     48  35  60 W7        30.01F
$$

IAZ001>003-012>014-020>022-031-032-NEZ013-014-SDZ071-270700-
NORTHWEST IOWA

CITY           SKY/WX    TMP DP  RH WIND       PRES   REMARKS
CHEROKEE       CLEAR     49  41  74 CALM      30.03S
DENISON        CLEAR     46  45  93 SE3       30.02S
ESTHERVILLE    CLEAR     45  37  73 W10       29.98F
LE MARS        CLEAR     48  43  81 CALM      30.05S
ORANGE CITY    CLEAR     48  41  76 NW6       30.04S
SHELDON        CLEAR     46  39  76 W6        30.01F
SIOUX CITY     CLEAR     50  44  80 W5        30.05S
6HR MIN TEMP:  50; 6HR MAX TEMP:  69;

SPENCER        CLEAR     44  38  79 W8        30.01F
6HR MIN TEMP:  41; 6HR MAX TEMP:  65;

STORM LAKE     CLEAR     48  41  76 W9        30.03S
$$

ABBREVIATIONS USED IN REMARKS
   TC - TEMPERATURE IN CELSIUS
  WCI - WIND CHILL INDEX
   HX - HEAT INDEX
  VSB - VISIBILITY





USA.gov is the U.S. government's official web portal to all federal, state and local government web resources and services.